Regional Weather Roundup
Issued by NWS

Home | Current Version | Previous Version | Text Only | Print | Product List | Glossary Off
Versions: 1 2 3 4 5 6 7 8 9 10 11 12 13 14 15 16 17 18 19 20 21 22 23 24 25 26 27 28 29 30 31 32 33 34 35 36 37 38 39 40 41 42 43 44 45 46 47 48 49 50

000
ASUS43 KOAX 020210
RWRNE

WEATHER ROUNDUP FOR NEBRASKA
NATIONAL WEATHER SERVICE OMAHA NE
900 PM CDT WED JUL 01 2015

NOTES: SATELLITE DATA IS BEING USED TO AUGMENT CLOUD COVER ABOVE
       12000 FEET.
       "FAIR" INDICATES FEW OR NO CLOUDS BELOW 12,000 FEET WITH NO
       SIGNIFICANT WEATHER AND/OR OBSTRUCTIONS TO VISIBILITY.

  * THESE STATIONS DO NOT REPORT WEATHER SUCH AS RAIN...SNOW OR FOG.

NEZ001>004-019>022-054>056-020300-
NEBRASKA PANHANDLE

CITY           SKY/WX    TMP DP  RH WIND       PRES   REMARKS
SCOTTSBLUFF    LGT RAIN  69  62  78 E20G32    30.01R
ALLIANCE       PTCLDY    79  61  53 E10       30.01R
CHADRON        CLEAR     78  62  57 NE8       29.98R
KIMBALL          N/A    N/A N/A N/A MISG        N/A
SIDNEY         CLOUDY    80  55  42 E8        30.04S
$$

NEZ057>060-069>072-079>082-020300-
SOUTHWEST NEBRASKA

CITY           SKY/WX    TMP DP  RH WIND       PRES   REMARKS
NORTH PLATTE   PTCLDY    78  59  51 N8        29.94R
IMPERIAL       CLOUDY    80  60  50 E7        29.97R
LEXINGTON      PTCLDY    82  69  63 SE6       29.92R
MCCOOK         PTCLDY    84  66  54 E6        29.92R
OGALLALA       CLOUDY    80  59  48 NE6       29.97S
$$

NEZ005>010-023>029-035>040-094-020300-
NORTH CENTRAL NEBRASKA

CITY           SKY/WX    TMP DP  RH WIND       PRES   REMARKS
VALENTINE      CLEAR     76  64  66 N8        29.96R
AINSWORTH      CLEAR     75  64  69 NE3       29.96R
BROKEN BOW     CLEAR     81  70  69 SE3       29.91R
O`NEILL        PTCLDY    74  69  83 E10G17    29.93R
THEDFORD       CLEAR     79  62  55 N7        29.97R
$$

NEZ041-046>049-061>064-073>077-083>087-020300-
SOUTH CENTRAL NEBRASKA

CITY           SKY/WX    TMP DP  RH WIND       PRES   REMARKS
GRAND ISLAND   CLEAR     79  69  71 CALM      29.89S
AURORA         CLEAR     79  72  78 E3        29.88S
HASTINGS       CLEAR     79  69  71 E6        29.89S
HEBRON         CLEAR     80  69  68 NE3       29.86S
HOLDREGE       CLEAR     78  67  70 E6        29.92R
KEARNEY *      CLEAR     79  68  69 E3        29.91R
YORK           CLOUDY    79  72  78 E10       29.89R
$$

NEZ011>018-030>034-042>045-020300-
NORTHEAST NEBRASKA

CITY           SKY/WX    TMP DP  RH WIND       PRES   REMARKS
NORFOLK        MOCLDY    74  67  78 E10       29.91R
ALBION         PTCLDY    76  65  70 E9        29.91R
BLAIR          CLEAR     73  65  76 NE14      29.90R
COLUMBUS *     PTCLDY   N/A N/A N/A E8        29.90S
FREMONT        PTCLDY    76  66  70 NE6       29.90R
TEKAMAH        PTCLDY    74  67  78 E12       29.91R
WAYNE          PTCLDY    71  67  87 E5        29.93R
$$

NEZ050>053-065>068-078-088>093-020300-
SOUTHEAST NEBRASKA

CITY           SKY/WX    TMP DP  RH WIND       PRES   REMARKS
LINCOLN        MOCLDY    80  69  69 E9        29.87R
OMAHA EPPLEY   MOCLDY    75  67  76 E13       29.88S
BEATRICE       PTCLDY    80  70  72 NE5       29.85S
FALLS CITY     CLEAR     78  73  84 NE3       29.83R
NEBRASKA CITY  MOCLDY    77  66  69 NE10      29.87S
PLATTSMOUTH    PTCLDY    74  67  78 NE10      29.88S
$$

NEZ044-045-051>053-067-020300-
OMAHA AREA

CITY           SKY/WX    TMP DP  RH WIND       PRES   REMARKS
OMAHA EPPLEY   MOCLDY    75  67  76 E13       29.88S
BLAIR          CLEAR     73  65  76 NE14      29.90R
FREMONT        PTCLDY    76  66  70 NE6       29.90R
MILLARD        CLEAR     77  69  76 E7        29.88R
OFFUTT AFB     CLEAR     75  68  80 NE10G21   29.87S
PLATTSMOUTH    PTCLDY    74  67  78 NE10      29.88S
WAHOO          CLOUDY    76  67  73 NE12      29.88S
$$


USA.gov is the U.S. government's official web portal to all federal, state and local government web resources and services.